• In Austria
  • List of Countries
  • For 7 days
  • Water Temperature
  • Satellite Maps
  • Weather Map
  • News
  • Weather Widgets
  • user-avatar
    Login

    Hourly Weather Duchnice

    Today, 13 November, Tuesday

    Time Temperature Precipitation Wind Pressure Humidity
    00:00 +8°C° 0 mm 4 mps 759 mmHg 84%
    01:00 +7°C° 0 mm 4 mps 758 mmHg 85%
    02:00 +7°C° 0 mm 4 mps 758 mmHg 86%
    03:00 +7°C° 0 mm 4 mps 758 mmHg 87%
    04:00 +7°C° 0 mm 4 mps 758 mmHg 88%
    05:00 +7°C° 0 mm 4 mps 758 mmHg 88%
    06:00 +7°C° 0 mm 4 mps 758 mmHg 89%
    07:00 +7°C° 0 mm 4 mps 758 mmHg 90%
    08:00 +8°C° 0 mm 4 mps 758 mmHg 85%
    09:00 +11°C° 0 mm 4 mps 758 mmHg 80%
    10:00 +12°C° 0 mm 4 mps 758 mmHg 75%
    11:00 +12°C° 0 mm 4 mps 758 mmHg 72%
    12:00 +13°C° 0 mm 4 mps 758 mmHg 70%
    13:00 +14°C° 0 mm 4 mps 757 mmHg 68%
    14:00 +13°C° 0 mm 3 mps 757 mmHg 71%
    15:00 +13°C° 0 mm 3 mps 757 mmHg 73%
    16:00 +12°C° 0 mm 3 mps 757 mmHg 75%
    17:00 +12°C° 0.3 mm 3 mps 757 mmHg 78%
    18:00 +12°C° 0.3 mm 4 mps 757 mmHg 80%
    19:00 +12°C° 0.3 mm 5 mps 757 mmHg 83%
    20:00 +10°C° 0.9 mm 5 mps 757 mmHg 83%
    21:00 +10°C° 0.9 mm 5 mps 757 mmHg 84%
    22:00 +9°C° 0.9 mm 6 mps 758 mmHg 84%
    23:00 +9°C° 0 mm 5 mps 758 mmHg 85%

    Tomorrow, 14 November, Wednesday

    Time Temperature Precipitation Wind Pressure Humidity
    00:00 +8°C° 0 mm 5 mps 758 mmHg 86%
    01:00 +8°C° 0 mm 4 mps 759 mmHg 87%
    02:00 +7°C° 0 mm 5 mps 759 mmHg 88%
    03:00 +7°C° 0 mm 5 mps 759 mmHg 88%
    04:00 +7°C° 0 mm 6 mps 759 mmHg 89%
    05:00 +7°C° 0 mm 5 mps 759 mmHg 87%
    06:00 +7°C° 0 mm 5 mps 760 mmHg 86%
    07:00 +7°C° 0 mm 5 mps 760 mmHg 84%
    08:00 +7°C° 0 mm 6 mps 760 mmHg 83%
    09:00 +8°C° 0 mm 6 mps 760 mmHg 82%
    10:00 +8°C° 0 mm 6 mps 760 mmHg 81%
    11:00 +8°C° 0.1 mm 6 mps 760 mmHg 81%
    12:00 +8°C° 0.1 mm 6 mps 760 mmHg 80%
    13:00 +8°C° 0.1 mm 5 mps 761 mmHg 79%
    14:00 +8°C° 0 mm 5 mps 761 mmHg 80%
    15:00 +8°C° 0 mm 5 mps 761 mmHg 80%
    16:00 +8°C° 0 mm 5 mps 761 mmHg 81%
    17:00 +8°C° 0 mm 4 mps 762 mmHg 82%
    18:00 +8°C° 0 mm 4 mps 762 mmHg 84%
    19:00 +7°C° 0 mm 4 mps 762 mmHg 86%
    20:00 +7°C° 0 mm 4 mps 762 mmHg 88%
    21:00 +7°C° 0 mm 3 mps 763 mmHg 90%
    22:00 +7°C° 0 mm 3 mps 763 mmHg 92%
    23:00 +7°C° 0 mm 3 mps 763 mmHg 93%

    Day after tomorrow, 15 November, Thursday

    Time Temperature Precipitation Wind Pressure Humidity
    00:00 +6°C° 0 mm 2 mps 763 mmHg 94%
    01:00 +6°C° 0 mm 2 mps 763 mmHg 95%
    02:00 +6°C° 0 mm 2 mps 763 mmHg 95%
    03:00 +5°C° 0 mm 2 mps 764 mmHg 96%
    04:00 +5°C° 0 mm 2 mps 764 mmHg 96%
    05:00 +5°C° 0 mm 2 mps 764 mmHg 96%
    06:00 +5°C° 0 mm 2 mps 764 mmHg 96%
    07:00 +6°C° 0 mm 1 mps 764 mmHg 96%
    08:00 +6°C° 0 mm 1 mps 765 mmHg 92%
    09:00 +7°C° 0 mm 1 mps 765 mmHg 88%
    10:00 +8°C° 0 mm 1 mps 765 mmHg 84%
    11:00 +9°C° 0 mm 1 mps 765 mmHg 81%
    12:00 +9°C° 0 mm 2 mps 765 mmHg 78%
    13:00 +9°C° 0 mm 2 mps 765 mmHg 75%
    14:00 +8°C° 0 mm 2 mps 765 mmHg 79%
    15:00 +8°C° 0 mm 2 mps 765 mmHg 83%
    16:00 +7°C° 0 mm 2 mps 766 mmHg 87%
    17:00 +7°C° 0 mm 2 mps 766 mmHg 89%
    18:00 +6°C° 0 mm 2 mps 766 mmHg 91%
    19:00 +6°C° 0 mm 2 mps 766 mmHg 93%
    20:00 +5°C° 0 mm 2 mps 767 mmHg 93%
    21:00 +5°C° 0 mm 2 mps 767 mmHg 93%
    22:00 +5°C° 0 mm 2 mps 767 mmHg 93%
    23:00 +5°C° 0 mm 2 mps 767 mmHg 93%

    16 November, Friday

    Time Temperature Precipitation Wind Pressure Humidity
    00:00 +4°C° 0 mm 2 mps 767 mmHg 93%
    01:00 +4°C° 0 mm 2 mps 768 mmHg 92%
    02:00 +4°C° 0 mm 2 mps 768 mmHg 92%
    03:00 +3°C° 0 mm 2 mps 768 mmHg 92%
    04:00 +3°C° 0 mm 2 mps 768 mmHg 92%
    05:00 +3°C° 0 mm 2 mps 768 mmHg 93%
    06:00 +3°C° 0 mm 2 mps 768 mmHg 93%
    07:00 +2°C° 0 mm 2 mps 769 mmHg 93%
    08:00 +3°C° 0 mm 2 mps 769 mmHg 89%
    09:00 +4°C° 0 mm 2 mps 769 mmHg 85%
    10:00 +4°C° 0 mm 3 mps 769 mmHg 81%
    11:00 +6°C° 0 mm 2 mps 769 mmHg 77%
    12:00 +7°C° 0 mm 2 mps 769 mmHg 74%
    13:00 +7°C° 0 mm 2 mps 769 mmHg 71%
    14:00 +6°C° 0 mm 2 mps 769 mmHg 74%
    15:00 +6°C° 0 mm 2 mps 769 mmHg 78%
    16:00 +5°C° 0 mm 2 mps 769 mmHg 81%
    17:00 +5°C° 0 mm 2 mps 770 mmHg 83%
    18:00 +4°C° 0 mm 2 mps 770 mmHg 85%
    19:00 +4°C° 0 mm 2 mps 770 mmHg 87%
    20:00 +3°C° 0 mm 2 mps 770 mmHg 87%
    21:00 +3°C° 0 mm 2 mps 770 mmHg 88%
    22:00 +3°C° 0 mm 2 mps 770 mmHg 88%
    23:00 +2°C° 0 mm 2 mps 770 mmHg 89%

    17 November, Saturday

    Time Temperature Precipitation Wind Pressure Humidity
    00:00 +2°C° 0 mm 2 mps 770 mmHg 89%
    01:00 +2°C° 0 mm 2 mps 771 mmHg 90%
    02:00 +2°C° 0 mm 2 mps 771 mmHg 90%
    03:00 +1°C° 0 mm 2 mps 770 mmHg 90%
    04:00 +1°C° 0 mm 2 mps 770 mmHg 91%
    05:00 +1°C° 0 mm 2 mps 771 mmHg 91%
    06:00 +1°C° 0 mm 2 mps 771 mmHg 91%
    07:00 +1°C° 0 mm 2 mps 771 mmHg 91%
    08:00 +2°C° 0 mm 2 mps 771 mmHg 86%
    09:00 +3°C° 0 mm 2 mps 771 mmHg 81%
    10:00 +4°C° 0 mm 2 mps 771 mmHg 75%
    11:00 +4°C° 0 mm 2 mps 771 mmHg 72%
    12:00 +5°C° 0 mm 2 mps 770 mmHg 68%
    13:00 +6°C° 0 mm 2 mps 770 mmHg 65%
    14:00 +5°C° 0 mm 2 mps 770 mmHg 68%
    15:00 +5°C° 0 mm 1 mps 770 mmHg 72%
    16:00 +5°C° 0 mm 1 mps 770 mmHg 75%
    17:00 +4°C° 0 mm 1 mps 770 mmHg 78%
    18:00 +4°C° 0 mm 1 mps 770 mmHg 80%
    19:00 +3°C° 0 mm 1 mps 770 mmHg 82%
    20:00 +3°C° 0 mm 1 mps 769 mmHg 83%
    21:00 +3°C° 0 mm 1 mps 769 mmHg 84%
    22:00 +2°C° 0 mm 0 mps 769 mmHg 85%
    23:00 +2°C° 0 mm 0 mps 769 mmHg 86%

    18 November, Sunday

    Time Temperature Precipitation Wind Pressure Humidity
    00:00 +1°C° 0 mm 0 mps 769 mmHg 86%
    01:00 +2°C° 0 mm 1 mps 768 mmHg 86%
    02:00 +2°C° 0 mm 1 mps 768 mmHg 86%
    03:00 +2°C° 0 mm 1 mps 767 mmHg 86%
    04:00 +2°C° 0 mm 1 mps 767 mmHg 86%
    05:00 +1°C° 0 mm 2 mps 766 mmHg 86%
    06:00 +1°C° 0 mm 2 mps 766 mmHg 86%
    07:00 +1°C° 0 mm 2 mps 766 mmHg 86%
    08:00 +2°C° 0 mm 2 mps 765 mmHg 82%
    09:00 +2°C° 0 mm 3 mps 765 mmHg 79%
    10:00 +3°C° 0 mm 3 mps 764 mmHg 75%
    11:00 +4°C° 0 mm 4 mps 763 mmHg 75%
    12:00 +4°C° 0 mm 4 mps 763 mmHg 74%
    13:00 +5°C° 0 mm 4 mps 762 mmHg 73%
    14:00 +5°C° 0 mm 4 mps 761 mmHg 77%
    15:00 +5°C° 0 mm 4 mps 761 mmHg 81%
    16:00 +4°C° 0 mm 4 mps 760 mmHg 85%
    17:00 +5°C° 0 mm 4 mps 760 mmHg 83%
    18:00 +5°C° 0 mm 5 mps 760 mmHg 80%
    19:00 +5°C° 0 mm 5 mps 759 mmHg 78%
    20:00 +3°C° 0 mm 5 mps 759 mmHg 76%
    21:00 +3°C° 0 mm 5 mps 759 mmHg 74%
    22:00 +3°C° 0 mm 5 mps 759 mmHg 72%
    23:00 +2°C° 0 mm 5 mps 759 mmHg 74%
    Show more